ROU1811 MMUN-CYYZ

Flight info

Callsign ROU1811
Flight time N/A
Altitude 33000
Route ROTGI2A ROTGI UM219 MYDIA M219 CIGAR DCT HEVVN DCT SPA/N0455F350 DCT PSK DCT OXMAN LINNG3
Aircraft A321/M-SDE3FGHIRWY/LB1

Departure

Time 2026-04-30 21:38
Airport Cancún International Airport (MMUN)

Arrival

Time N/A
Airport Toronto Pearson International Airport (CYYZ)
Time Latitude Longitude Altitude Speed Heading
2026-04-30 21:10 21.03585 -86.86776 29 ft 0 kts 308°
2026-04-30 21:28 21.03565 -86.86749 29 ft 4 kts 306°
2026-04-30 21:28 21.03553 -86.86725 29 ft 4 kts 279°
2026-04-30 21:28 21.03566 -86.86688 29 ft 1 kts 214°
2026-04-30 21:29 21.03567 -86.86687 29 ft 0 kts 214°
2026-04-30 21:31 21.03558 -86.86693 29 ft 3 kts 213°
2026-04-30 21:31 21.03500 -86.86734 29 ft 8 kts 214°
2026-04-30 21:32 21.03391 -86.86813 29 ft 8 kts 214°
2026-04-30 21:32 21.03353 -86.86841 30 ft 6 kts 221°
2026-04-30 21:32 21.03346 -86.86884 30 ft 7 kts 285°
2026-04-30 21:32 21.03379 -86.86944 30 ft 12 kts 303°
2026-04-30 21:33 21.03438 -86.87037 30 ft 18 kts 303°
2026-04-30 21:33 21.03586 -86.87335 32 ft 27 kts 283°
2026-04-30 21:33 21.03605 -86.87514 36 ft 21 kts 279°
2026-04-30 21:34 21.03641 -86.87657 34 ft 20 kts 291°
2026-04-30 21:34 21.03795 -86.87921 34 ft 23 kts 304°
2026-04-30 21:34 21.03883 -86.88061 33 ft 21 kts 303°
2026-04-30 21:35 21.03962 -86.88188 33 ft 20 kts 303°
2026-04-30 21:35 21.04037 -86.88307 33 ft 19 kts 304°
2026-04-30 21:35 21.04107 -86.88416 35 ft 17 kts 304°
2026-04-30 21:35 21.04173 -86.88519 35 ft 17 kts 303°
2026-04-30 21:36 21.04260 -86.88663 35 ft 29 kts 303°
2026-04-30 21:36 21.04387 -86.88866 33 ft 34 kts 304°
2026-04-30 21:37 21.04534 -86.89075 30 ft 9 kts 192°
2026-04-30 21:37 21.04494 -86.89037 32 ft 7 kts 124°
2026-04-30 21:37 21.04464 -86.88990 32 ft 12 kts 124°
2026-04-30 21:37 21.04309 -86.88742 35 ft 72 kts 124°
2026-04-30 21:38 21.03929 -86.88135 34 ft 124 kts 124°
2026-04-30 21:38 21.03367 -86.87235 36 ft 164 kts 124°
2026-04-30 21:38 21.02712 -86.86148 370 ft 173 kts 124°
2026-04-30 21:38 21.02082 -86.85060 929 ft 171 kts 124°
2026-04-30 21:39 21.01465 -86.83984 1498 ft 172 kts 123°
2026-04-30 21:39 21.01106 -86.82711 1694 ft 195 kts 90°
2026-04-30 21:39 21.01479 -86.81231 1812 ft 215 kts 75°
2026-04-30 21:39 21.01981 -86.79641 1922 ft 237 kts 74°
2026-04-30 21:40 21.02514 -86.77896 2233 ft 254 kts 75°
2026-04-30 21:40 21.03065 -86.76080 2856 ft 259 kts 75°
2026-04-30 21:40 21.03625 -86.74231 3501 ft 263 kts 75°
2026-04-30 21:40 21.04203 -86.72353 4109 ft 268 kts 71°
2026-04-30 21:41 21.05196 -86.70674 4698 ft 278 kts 45°
2026-04-30 21:41 21.06766 -86.69443 5252 ft 283 kts 35°
2026-04-30 21:41 21.08420 -86.68276 5841 ft 286 kts 34°
2026-04-30 21:41 21.10194 -86.67287 6401 ft 290 kts 19°
2026-04-30 21:42 21.12178 -86.66841 6862 ft 293 kts
2026-04-30 21:42 21.14215 -86.66830 6975 ft 292 kts
2026-04-30 21:42 21.16247 -86.66849 6998 ft 291 kts
2026-04-30 21:42 21.18276 -86.66865 7001 ft 291 kts
2026-04-30 21:43 21.20276 -86.66879 6998 ft 290 kts
2026-04-30 21:43 21.21644 -86.66887 6998 ft 290 kts
2026-04-30 21:43 21.24326 -86.66901 6998 ft 290 kts
2026-04-30 21:43 21.26358 -86.66910 7256 ft 292 kts
2026-04-30 21:44 21.28394 -86.66918 7854 ft 293 kts
2026-04-30 21:44 21.30438 -86.66928 8406 ft 294 kts
2026-04-30 21:44 21.32464 -86.66938 8944 ft 295 kts
2026-04-30 21:44 21.34526 -86.66948 9469 ft 297 kts
2026-04-30 21:45 21.36601 -86.66958 9950 ft 298 kts
2026-04-30 21:45 21.38710 -86.66967 10208 ft 310 kts
2026-04-30 21:45 21.40918 -86.66972 10324 ft 325 kts
2026-04-30 21:45 21.43235 -86.66976 10438 ft 340 kts
2026-04-30 21:46 21.45650 -86.66984 10557 ft 354 kts
2026-04-30 21:46 21.48120 -86.66995 10795 ft 363 kts
2026-04-30 21:46 21.50660 -86.67010 11214 ft 366 kts
2026-04-30 21:46 21.53218 -86.67024 11691 ft 367 kts
2026-04-30 21:47 21.55778 -86.67039 12168 ft 368 kts
2026-04-30 21:47 21.58346 -86.67056 12672 ft 370 kts
2026-04-30 21:47 21.60931 -86.67070 13170 ft 371 kts
2026-04-30 21:47 21.63489 -86.67082 13664 ft 373 kts
2026-04-30 21:48 21.66101 -86.67093 14097 ft 375 kts
2026-04-30 21:48 21.68722 -86.67104 14508 ft 377 kts
2026-04-30 21:48 21.71352 -86.67113 14915 ft 379 kts
2026-04-30 21:48 21.74000 -86.67125 15319 ft 381 kts
2026-04-30 21:49 21.76628 -86.67139 15715 ft 383 kts
2026-04-30 21:49 21.79301 -86.67153 16106 ft 385 kts
2026-04-30 21:49 21.81992 -86.67168 16504 ft 387 kts
2026-04-30 21:49 21.84696 -86.67045 16874 ft 390 kts
2026-04-30 21:50 21.87363 -86.66484 17251 ft 392 kts 12°
2026-04-30 21:50 21.90032 -86.65865 17621 ft 394 kts 12°
2026-04-30 21:50 21.92722 -86.65245 17981 ft 396 kts 12°
2026-04-30 21:50 21.95428 -86.64621 18316 ft 399 kts 11°
2026-04-30 21:51 21.98150 -86.63993 18618 ft 401 kts 11°
2026-04-30 21:51 22.00886 -86.63362 18927 ft 403 kts 11°
2026-04-30 21:51 22.03641 -86.62726 19235 ft 405 kts 11°
2026-04-30 21:51 22.05468 -86.62306 19438 ft 406 kts 11°
2026-04-30 21:52 22.08239 -86.61667 19740 ft 408 kts 11°
2026-04-30 21:52 22.11006 -86.61026 20035 ft 410 kts 11°
2026-04-30 21:52 22.13813 -86.60375 20335 ft 412 kts 11°
2026-04-30 21:52 22.16627 -86.59724 20624 ft 414 kts 11°
2026-04-30 21:53 22.19458 -86.59072 20906 ft 417 kts 11°
2026-04-30 21:53 22.22299 -86.58419 21193 ft 419 kts 11°
2026-04-30 21:53 22.25155 -86.57762 21478 ft 420 kts 10°
2026-04-30 21:53 22.28022 -86.57102 21763 ft 422 kts 10°
2026-04-30 21:54 22.30908 -86.56436 22051 ft 424 kts 10°
2026-04-30 21:54 22.33797 -86.55765 22329 ft 426 kts 10°
2026-04-30 21:54 22.36708 -86.55089 22604 ft 428 kts 10°
2026-04-30 21:54 22.39630 -86.54415 22873 ft 430 kts 10°
2026-04-30 21:55 22.42528 -86.53743 23146 ft 432 kts 10°
2026-04-30 21:55 22.45477 -86.53058 23405 ft 434 kts 10°
2026-04-30 21:55 22.48439 -86.52371 23637 ft 436 kts
2026-04-30 21:55 22.51408 -86.51682 23872 ft 437 kts 10°
2026-04-30 21:56 22.54389 -86.50990 24103 ft 438 kts 10°
2026-04-30 21:56 22.57382 -86.50293 24334 ft 439 kts 10°
2026-04-30 21:56 22.60373 -86.49598 24572 ft 440 kts 10°
2026-04-30 21:56 22.63376 -86.48901 24811 ft 441 kts 10°
2026-04-30 21:57 22.66354 -86.48212 25040 ft 442 kts 10°
2026-04-30 21:57 22.69364 -86.47511 25273 ft 443 kts 10°
2026-04-30 21:57 22.72390 -86.46806 25504 ft 445 kts 10°
2026-04-30 21:57 22.75421 -86.46101 25736 ft 446 kts 10°
2026-04-30 21:58 22.78460 -86.45392 25960 ft 447 kts 10°
2026-04-30 21:58 22.81506 -86.44680 26180 ft 448 kts 10°
2026-04-30 21:58 22.84557 -86.43967 26416 ft 449 kts 10°
2026-04-30 21:58 22.87619 -86.43250 26644 ft 450 kts 10°
2026-04-30 21:59 22.90640 -86.42543 26859 ft 451 kts 10°
2026-04-30 21:59 22.93713 -86.41826 27081 ft 452 kts 10°
2026-04-30 21:59 22.96796 -86.41108 27280 ft 453 kts 10°
2026-04-30 22:00 23.02988 -86.39664 27715 ft 456 kts 10°
2026-04-30 22:00 23.09208 -86.38208 28146 ft 458 kts 11°
2026-04-30 22:00 23.12299 -86.37480 28357 ft 459 kts 11°
2026-04-30 22:01 23.15434 -86.36742 28575 ft 460 kts 11°
2026-04-30 22:01 23.18568 -86.36008 28891 ft 458 kts 11°
2026-04-30 22:01 23.21694 -86.35275 29216 ft 457 kts 11°
2026-04-30 22:01 23.24766 -86.34551 29528 ft 456 kts 11°
2026-04-30 22:02 23.27871 -86.33819 29822 ft 455 kts 11°
2026-04-30 22:02 23.30965 -86.33092 30096 ft 454 kts 11°
2026-04-30 22:02 23.34055 -86.32367 30343 ft 453 kts 10°
2026-04-30 22:02 23.37132 -86.31647 30588 ft 452 kts 10°
2026-04-30 22:03 23.40204 -86.30927 30853 ft 451 kts 10°
2026-04-30 22:03 23.43225 -86.30213 31110 ft 449 kts 10°
2026-04-30 22:03 23.46286 -86.29487 31382 ft 448 kts 10°
2026-04-30 22:03 23.49330 -86.28767 31661 ft 447 kts 10°
2026-04-30 22:04 23.52364 -86.28053 31936 ft 446 kts 10°
2026-04-30 22:04 23.55396 -86.27342 32209 ft 444 kts 10°
2026-04-30 22:04 23.61425 -86.25929 32758 ft 442 kts
2026-04-30 22:05 23.64429 -86.25222 32908 ft 441 kts
2026-04-30 22:05 23.70393 -86.23805 32936 ft 437 kts
2026-04-30 22:06 23.76297 -86.22407 32937 ft 436 kts
2026-04-30 22:06 23.85205 -86.20300 32941 ft 436 kts
2026-04-30 22:07 23.91141 -86.18893 32941 ft 436 kts
2026-04-30 22:07 23.97093 -86.17484 32939 ft 436 kts
2026-04-30 22:08 24.02985 -86.16000 32940 ft 438 kts 15°
2026-04-30 22:08 24.08523 -86.13077 32940 ft 443 kts 26°
2026-04-30 22:09 24.13865 -86.09759 32939 ft 444 kts 26°
2026-04-30 22:09 24.19248 -86.06431 32940 ft 444 kts 26°
2026-04-30 22:10 24.24739 -86.03382 32943 ft 438 kts 15°
2026-04-30 22:10 24.30524 -86.01254 32944 ft 439 kts 15°
2026-04-30 22:11 24.39192 -85.98071 32941 ft 439 kts 15°
2026-04-30 22:12 24.45002 -85.95936 32946 ft 440 kts 15°
2026-04-30 22:12 24.50805 -85.93806 32949 ft 440 kts 15°
2026-04-30 22:13 24.56577 -85.91694 32946 ft 439 kts 15°
2026-04-30 22:13 24.62382 -85.89556 32942 ft 439 kts 15°
2026-04-30 22:14 24.68182 -85.87412 32949 ft 440 kts 15°
2026-04-30 22:14 24.73990 -85.85275 32953 ft 440 kts 15°
2026-04-30 22:15 24.79793 -85.83133 32954 ft 440 kts 15°
2026-04-30 22:15 24.85600 -85.80984 32959 ft 441 kts 15°
2026-04-30 22:16 24.91415 -85.78833 32959 ft 441 kts 14°
2026-04-30 22:17 25.03045 -85.74525 32959 ft 441 kts 14°
2026-04-30 22:17 25.11736 -85.71296 32958 ft 441 kts 14°
2026-04-30 22:18 25.20474 -85.68051 32953 ft 441 kts 14°
2026-04-30 22:19 25.29183 -85.64799 32952 ft 441 kts 14°
2026-04-30 22:20 25.37909 -85.61539 32957 ft 441 kts 14°
2026-04-30 22:20 25.46646 -85.58274 32955 ft 442 kts 14°
2026-04-30 22:21 25.52450 -85.56107 32954 ft 442 kts 14°
2026-04-30 22:21 25.58287 -85.53931 32955 ft 442 kts 14°
2026-04-30 22:22 25.64120 -85.51747 32956 ft 442 kts 14°
2026-04-30 22:22 25.69914 -85.49568 32957 ft 442 kts 14°
2026-04-30 22:23 25.75754 -85.47367 32957 ft 442 kts 14°
2026-04-30 22:23 25.81592 -85.45177 32950 ft 442 kts 14°
2026-04-30 22:24 25.87392 -85.42999 32953 ft 442 kts 14°
2026-04-30 22:24 25.93238 -85.40798 32954 ft 442 kts 14°
2026-04-30 22:25 25.99071 -85.38594 32956 ft 443 kts 14°
2026-04-30 22:25 26.04916 -85.36389 32951 ft 443 kts 14°
2026-04-30 22:26 26.13637 -85.33087 32945 ft 443 kts 14°
2026-04-30 22:27 26.19479 -85.30878 32949 ft 443 kts 14°
2026-04-30 22:27 26.28211 -85.27576 32948 ft 443 kts 14°
2026-04-30 22:28 26.36978 -85.24252 32955 ft 443 kts 14°
2026-04-30 22:29 26.48587 -85.19604 32954 ft 445 kts 15°
2026-04-30 22:31 26.68910 -85.11318 32949 ft 445 kts 15°
2026-04-30 22:32 26.83469 -85.05374 32954 ft 445 kts 15°
2026-04-30 22:33 26.98000 -84.99442 32952 ft 446 kts 15°
2026-04-30 22:35 27.12581 -84.93462 32957 ft 446 kts 15°
2026-04-30 22:36 27.27166 -84.87482 32951 ft 447 kts 15°
2026-04-30 22:37 27.38825 -84.82670 32954 ft 447 kts 15°
2026-04-30 22:38 27.50508 -84.77846 32956 ft 447 kts 15°
2026-04-30 22:39 27.59368 -84.74515 32957 ft 446 kts 13°
2026-04-30 22:40 27.77055 -84.67976 32961 ft 447 kts 14°
2026-04-30 22:41 27.90807 -84.62808 32961 ft 447 kts 14°
2026-04-30 22:43 28.08471 -84.56169 32956 ft 446 kts 14°
2026-04-30 22:44 28.20221 -84.51727 32954 ft 445 kts 14°
2026-04-30 22:45 28.37866 -84.45057 32947 ft 445 kts 14°
2026-04-30 22:47 28.55472 -84.38368 32958 ft 445 kts 14°
2026-04-30 22:48 28.67223 -84.33890 32957 ft 445 kts 14°
2026-04-30 22:49 28.84836 -84.27158 32958 ft 445 kts 14°
2026-04-30 22:51 29.02437 -84.20410 32957 ft 445 kts 14°
2026-04-30 22:52 29.11258 -84.17019 32958 ft 445 kts 14°
2026-04-30 22:53 29.22980 -84.12510 32947 ft 445 kts 14°
2026-04-30 22:53 29.31756 -84.09116 32937 ft 444 kts 13°
2026-04-30 22:55 29.46430 -84.03447 32921 ft 445 kts 13°
2026-04-30 22:56 29.58165 -83.98882 32924 ft 447 kts 13°
2026-04-30 22:57 29.72877 -83.93167 32932 ft 447 kts 13°
2026-04-30 22:58 29.84638 -83.88599 32932 ft 446 kts 12°
2026-04-30 22:59 30.02428 -83.82323 32924 ft 445 kts 11°